Terug naar catalogus

NOAA 17 DEB

ActiefPO
NORAD 48178·DEBRIS·🇺🇸 United States

Gelanceerd Jun 24, 2002 vanaf Vandenberg Space Force Base

Loading…

Volgende Passages (komende 24 uur)

TLE

VersSource: Space-Track

Epoch: Sep 14, 2026, 00:05 UTC

1 48178U 02032T   26257.00365334  .00004478  00000-0  10562-2 0  9990
2 48178  98.8599 278.5861 0007745 352.7164   7.3917 14.54762772286903

Volg NOAA 17 DEB in realtime met AllMySat

Download on the App Store